Hourly Weather Roundup
Issued by NWS Central Illinois

Home | Current Version | Previous Version | Text Only | Print | Product List | Glossary On
Versions: 1 2 3 4 5 6 7 8 9 10 11 12 13 14 15 16 17 18 19 20 21 22 23 24 25 26 27 28 29 30 31 32 33 34 35 36 37 38 39 40 41 42 43 44 45 46 47 48 49 50
000
NZUS43 KILX 020610
HWRILX

AREA WEATHER ROUNDUP
NATIONAL WEATHER SERVICE, LINCOLN IL
100 AM CDT WED SEP 02 2015


CITY           SKY/WX    TMP DP  RH WIND       PRES   REMARKS
BLOOMINGTON    FAIR      72  71  96 S8        30.09F
6HR MIN TEMP:  72; 6HR MAX TEMP:  79; 6HR PCP:  0.01;

CHAMPAIGN      FAIR      71  69  93 S5        30.09F
6HR MIN TEMP:  70; 6HR MAX TEMP:  80; 6HR PCP:  0.65;

DANVILLE       HVY RAIN  68  68  99 CALM      30.07S
6HR MIN TEMP:  67; 6HR MAX TEMP:  76;

DECATUR        FAIR      76  68  76 S6        30.08F
6HR MIN TEMP:  75; 6HR MAX TEMP:  85;

EFFINGHAM      FAIR      69  66  89 CALM      30.11S
FLORA          FAIR      68  66  93 CALM      30.10S
6HR MIN TEMP:  68; 6HR MAX TEMP:  84;

GALESBURG      FAIR      72  68  88 CALM      30.05S
JACKSONVILLE   FAIR      78  71  81 S6        30.06F
6HR MIN TEMP:  77; 6HR MAX TEMP:  87;

LACON          FAIR      73  67  84 S3        30.04F
6HR MIN TEMP:  73; 6HR MAX TEMP:  84;

LAWRENCEVILLE  FAIR      69  68  96 CALM      30.10F FOG
6HR MIN TEMP:  69; 6HR MAX TEMP:  80;

LITCHFIELD     FAIR      72  68  88 SE5       30.08F
$$


CITY           SKY/WX    TMP DP  RH WIND       PRES   REMARKS
LINCOLN        FAIR      74  69  85 CALM      30.06F
6HR MIN TEMP:  73; 6HR MAX TEMP:  89;

MACOMB         FAIR      75  69  80 SW6       30.06S
MATTOON        FAIR      73  67  81 S6        30.09S
6HR MIN TEMP:  73; 6HR MAX TEMP:  81;

MT CARMEL AP   FAIR      68  64  88 CALM      30.09F
OLNEY-NOBLE AP FAIR      68  68 100 CALM      30.10S FOG
PARIS          FAIR      68  66  93 S3        30.10S
6HR MIN TEMP:  68; 6HR MAX TEMP:  79;

PEORIA         FAIR      75  68  78 S5        30.06S
6HR MIN TEMP:  75; 6HR MAX TEMP:  88;

PONTIAC        FAIR      74  71  91 SW5       30.07F
RANTOUL        FAIR      73  70  92 S5        30.08S
6HR MIN TEMP:  73; 6HR MAX TEMP:  81;

ROBINSON       FAIR      67  66  97 CALM      30.11S FOG
6HR MIN TEMP:  67; 6HR MAX TEMP:  81;

SPRINGFIELD    FAIR      76  70  82 S8        30.07S
6HR MIN TEMP:  76; 6HR MAX TEMP:  87;

TAYLORVILLE    FAIR      72  70  94 S6        30.08S
$$

...REGIONAL REPORTS...


CITY           SKY/WX    TMP DP  RH WIND       PRES   REMARKS
CHICAGO O`HARE FAIR      76  70  82 SW6       30.03S
KANKAKEE       FAIR      70  68  93 SW7       30.07S
MOLINE         FAIR      76  68  76 CALM      30.02S
MOUNT STERLING FAIR      72  69  92 S3        30.05F
MOUNT VERNON   FAIR      68  63  83 CALM      30.11S
PITTSFIELD     FAIR      77  70  79 S5        30.07S
QUINCY         FAIR      73  68  84 S5        30.05F
ROCKFORD       MOCLDY    72  68  87 CALM      30.04S
$$


CITY           SKY/WX    TMP DP  RH WIND       PRES   REMARKS
BURLINGTON     FAIR      73  70  90 S6        30.03F
CEDAR RAPIDS   FAIR      72  70  93 S5        30.01S
DES MOINES     FAIR      76  67  73 S9        29.96F
KIRKSVILLE     FAIR      73  68  84 S7        30.05S
OTTUMWA        FAIR      72  69  90 S8        30.00S
ST LOUIS       FAIR      80  69  69 SW5       30.08S HX  83
$$


CITY           SKY/WX    TMP DP  RH WIND       PRES   REMARKS
TERRE HAUTE    FAIR      67  64  90 CALM      30.10S
EVANSVILLE     FAIR      73  70  90 CALM      30.10F FOG
INDIANAPOLIS   FAIR      72  66  81 SW6       30.10S
LAFAYETTE      FAIR      69  67  93 CALM      30.08S
MADISON        FAIR      77  70  79 SW6       29.99S
MILWAUKEE      FAIR      77  70  79 SW10      30.00F
$$




USA.gov is the U.S. government's official web portal to all federal, state and local government web resources and services.